Theta_e
360 359 358 354 351 350 347 346 346 346 347 346 346 345 342 338 336 337 338 339 339 340 340 340 340 340 339 338 338 339 339 341 341 342 342 343 343 344 344 344 344 344 345 345 345 346 347 348 348 348 349 349 350 350 351 352 352 351 351 351 353 356 358 360 362 361 359 358 358 357 356 356 356 356 356 357 358 360 357 355 356 357 360 358 358
364 364 362 358 355 353 352 351 348 347 348 348 347 345 342 339 338 339 339 340 340 340 341 341 341 340 340 339 339 339 340 342 342 342 342 342 343 344 344 344 345 345 345 346 346 346 347 347 348 348 348 349 349 349 349 350 351 352 352 353 356 358 358 358 360 360 359 358 357 358 358 357 356 355 354 355 358 360 358 357 356 357 358 358 358
367 367 364 360 357 356 355 354 350 347 348 348 348 346 343 340 340 340 341 342 342 342 342 342 341 340 340 339 338 338 338 339 340 341 341 343 344 345 345 345 345 345 346 346 346 346 346 346 347 348 348 348 348 348 348 349 350 352 352 353 355 357 357 357 357 357 358 357 357 357 357 357 357 356 355 355 356 358 358 357 358 358 359 358 358
368 368 365 362 359 357 357 355 350 347 347 349 349 348 345 342 342 342 344 344 345 345 345 344 342 340 339 339 338 338 338 339 340 341 342 344 345 346 347 347 347 347 347 348 347 347 346 346 347 347 347 348 348 348 348 348 349 351 352 353 353 354 357 357 357 357 357 357 357 356 357 357 357 357 357 357 357 357 357 356 357 359 359 359 360
369 367 364 362 359 358 356 354 349 345 345 346 347 347 346 345 346 347 347 347 347 347 347 346 345 343 341 342 341 340 340 340 342 343 343 344 344 345 346 348 349 349 349 349 349 349 349 348 348 348 348 348 349 348 348 348 349 350 351 351 352 353 355 357 357 356 356 357 356 356 357 358 358 358 359 359 358 357 356 354 355 357 357 357 358
367 365 364 363 360 357 354 351 348 346 345 346 346 346 348 348 349 349 348 348 349 349 349 348 347 345 344 344 344 343 342 343 343 343 344 344 344 344 345 347 349 350 350 350 350 350 350 350 350 350 350 350 350 349 349 349 350 350 350 351 352 354 355 355 353 352 353 355 355 356 357 358 359 358 359 360 359 357 355 355 356 357 357 356 356
364 363 363 363 359 356 353 349 348 347 347 348 348 350 351 351 351 351 351 352 351 351 351 349 348 346 345 345 345 345 345 345 346 346 346 346 346 347 347 348 349 350 350 351 350 350 350 350 350 349 349 350 349 349 349 349 350 350 350 351 351 353 355 354 352 351 351 351 353 354 355 357 358 357 358 360 358 356 356 356 357 357 357 356 355
363 362 362 361 359 356 353 351 350 349 349 350 351 352 352 351 351 352 353 354 354 352 351 350 348 347 346 346 346 346 346 346 347 347 348 348 348 349 349 350 350 350 350 350 351 350 350 349 349 349 349 349 349 348 349 349 349 349 349 350 350 351 354 355 354 352 351 351 352 352 354 356 357 356 359 358 353 353 357 358 357 357 356 357 356
363 363 362 362 360 359 357 354 353 353 353 353 354 353 352 352 352 353 353 353 353 352 350 349 349 348 348 348 347 348 347 347 347 348 348 348 348 349 349 349 350 349 349 350 350 350 350 348 348 348 348 347 347 348 348 348 348 348 348 349 349 350 354 355 354 353 352 352 352 352 353 355 355 355 356 355 353 354 358 357 356 356 356 357 357
364 363 363 362 361 360 356 353 353 354 354 355 355 355 354 353 352 352 351 351 351 350 350 349 350 349 349 349 349 348 348 348 348 348 348 347 347 347 348 347 348 348 349 349 349 349 349 348 348 347 347 347 347 347 347 346 346 347 347 348 347 348 351 354 355 353 352 352 351 352 352 352 353 355 355 355 355 355 356 356 357 357 357 357 357
363 363 362 361 360 359 355 353 354 354 355 355 354 354 353 352 351 351 351 350 350 350 349 349 349 349 349 349 348 348 348 348 348 347 347 346 346 346 346 346 347 347 347 348 347 348 347 347 347 347 346 347 346 346 346 346 346 346 346 346 347 347 348 350 352 353 353 354 353 353 353 353 353 354 355 355 355 353 352 354 355 357 358 357 356
359 358 358 357 356 355 354 353 354 352 352 353 352 351 351 351 351 350 350 350 350 349 349 348 349 348 348 348 347 347 347 346 346 346 346 345 345 345 345 345 346 346 346 347 346 346 346 346 346 346 346 346 346 346 346 346 346 347 347 347 347 347 347 347 348 350 351 353 353 353 353 353 353 353 354 355 354 352 350 350 350 353 357 357 355
353 353 353 352 352 352 351 352 352 351 352 351 350 351 350 350 350 350 350 349 348 348 347 347 346 346 346 346 346 346 345 345 345 345 345 344 344 344 344 344 345 345 345 345 345 346 346 346 346 346 345 345 345 346 346 346 346 347 347 348 348 348 348 348 348 348 348 349 350 351 351 352 352 352 352 354 354 352 349 347 348 351 355 357 356
353 353 353 352 352 351 351 351 351 351 351 349 349 349 349 349 349 348 348 348 346 346 346 345 345 344 344 344 345 345 345 344 344 344 344 344 344 344 343 343 344 344 344 345 345 345 345 345 346 346 345 345 345 346 346 346 347 348 348 348 349 349 349 349 349 349 349 348 348 349 349 349 350 351 350 351 352 353 351 349 350 354 356 357 356
354 353 353 351 350 350 350 350 350 350 349 348 348 348 347 348 347 346 346 346 345 345 344 344 344 343 343 343 343 344 344 343 343 343 343 343 343 342 342 342 343 344 344 344 344 344 345 345 345 345 345 345 345 346 346 347 347 348 348 348 348 347 348 348 349 350 350 350 350 349 349 349 349 349 349 349 350 352 352 352 354 357 356 355 356
351 350 350 349 349 349 349 349 348 348 347 346 346 345 345 345 345 344 345 344 344 344 343 343 343 343 343 343 343 343 343 343 343 343 343 342 342 342 342 341 343 343 343 344 344 344 345 345 345 346 345 345 345 345 346 346 347 348 347 347 347 346 347 347 347 348 349 350 351 351 350 349 350 350 350 350 350 351 352 354 356 357 356 355 355
348 348 348 348 349 348 347 346 345 345 344 344 344 343 343 343 343 343 343 343 343 343 342 343 342 342 342 342 342 343 343 343 342 342 342 342 341 341 341 342 343 343 343 343 343 344 344 344 344 345 345 345 346 345 345 346 346 347 346 346 347 347 347 346 347 347 347 348 349 350 349 349 349 350 351 351 351 351 352 355 357 357 356 356 355
347 347 347 347 346 345 344 343 343 342 342 342 342 342 342 342 342 341 341 342 342 341 342 342 341 341 341 341 341 342 342 342 341 341 341 340 340 340 340 341 342 343 343 343 343 343 343 343 343 344 345 345 346 345 345 346 346 346 346 346 345 346 346 346 346 346 346 346 347 347 348 348 348 348 349 350 351 351 351 354 355 355 355 355 354
345 346 345 343 342 341 341 341 341 341 341 341 340 341 340 340 340 340 340 340 340 340 340 340 340 340 340 340 340 341 341 341 340 340 340 340 340 340 340 341 342 342 342 342 342 343 343 343 343 344 344 345 345 345 345 345 345 345 345 345 345 345 345 345 345 345 345 346 347 347 348 348 348 349 349 350 352 352 351 351 353 354 354 354 353
344 342 341 340 339 339 339 339 339 339 339 339 339 339 339 339 339 339 339 339 339 339 339 339 339 339 339 339 340 340 340 340 340 340 340 340 340 340 340 341 342 342 342 342 342 342 342 342 343 343 343 343 344 345 345 345 345 344 344 345 344 344 344 344 344 345 345 346 346 347 347 348 349 349 349 348 349 350 350 351 352 354 355 354 353
339 338 338 338 338 338 338 337 338 338 338 338 338 338 338 338 338 338 338 338 338 338 338 338 338 338 338 338 339 338 339 339 339 339 339 339 339 339 339 340 340 341 341 341 341 341 341 342 342 342 342 343 343 343 343 342 343 342 343 344 344 343 344 344 344 344 345 345 346 346 347 348 348 348 348 347 346 348 350 351 351 353 353 354 355
337 336 336 336 336 336 336 336 336 336 336 337 337 336 337 337 337 337 337 337 337 337 337 337 338 338 338 338 338 338 338 338 338 338 338 339 339 339 339 339 339 340 339 338 339 340 340 341 341 342 343 343 342 342 341 341 341 342 342 342 342 342 342 342 343 343 343 344 344 345 346 347 347 347 347 346 346 348 349 349 350 351 350 351 353
335 335 335 335 335 335 335 334 334 335 335 335 335 335 335 335 335 335 335 336 336 336 337 337 337 337 337 337 338 338 338 338 338 338 339 339 338 337 338 338 338 338 338 337 338 338 339 339 340 340 341 341 341 341 340 340 340 340 341 341 341 341 341 340 340 341 342 343 343 344 345 346 347 347 347 347 346 347 347 348 350 351 350 349 351
334 334 334 333 333 333 333 333 333 333 333 333 333 334 334 334 334 335 335 336 336 336 337 337 337 337 338 337 337 337 337 338 338 338 338 338 337 336 337 337 337 336 335 335 335 336 337 337 337 337 337 337 338 338 337 337 338 338 338 338 338 339 338 337 339 340 341 342 343 343 344 345 346 347 347 347 347 347 348 349 348 349 349 350 350
333 333 332 332 332 331 332 332 331 332 332 332 333 333 333 334 334 335 335 335 336 336 336 336 336 336 336 336 336 336 337 337 337 337 336 336 336 336 335 334 333 332 331 331 331 331 332 332 332 332 332 332 332 332 332 332 333 333 334 334 335 335 335 336 338 340 341 342 342 343 344 344 345 345 346 348 348 347 347 347 347 347 347 346 346
332 332 331 331 330 330 331 331 331 332 332 332 333 333 333 334 335 335 335 335 335 336 335 335 336 336 335 335 335 335 335 334 334 334 334 333 332 331 330 329 328 328 327 327 327 327 328 328 328 328 328 329 329 329 329 330 330 331 331 332 333 334 334 336 338 340 341 342 342 343 343 342 342 343 344 345 346 345 344 344 344 343 341 339 338
331 331 331 331 330 330 331 331 331 332 332 333 333 333 334 334 334 334 335 334 335 336 335 335 335 334 333 332 331 331 331 331 330 330 330 328 327 326 325 325 324 324 325 325 326 326 326 327 327 327 327 327 327 327 328 330 331 332 332 333 334 335 335 336 338 339 341 342 342 343 343 341 341 340 340 340 340 340 341 342 340 337 335 335 333
331 330 330 330 330 330 331 331 332 332 332 332 333 333 334 334 334 335 335 335 334 334 333 332 331 329 328 328 327 327 327 327 327 326 325 323 322 322 322 321 322 322 323 324 324 325 325 325 325 325 326 326 326 327 329 332 334 334 334 335 336 337 337 337 338 339 340 341 342 343 342 341 340 338 336 335 335 334 335 336 335 332 331 331 329
330 330 330 330 330 330 330 331 331 331 331 332 332 332 333 333 334 335 334 332 330 328 327 326 325 324 324 324 324 323 323 323 322 322 321 321 321 322 322 322 321 321 322 322 321 321 321 322 322 323 324 324 326 327 330 334 337 337 337 337 338 339 340 340 340 340 341 341 341 341 339 337 335 333 332 331 330 330 330 330 330 328 328 327 325
330 329 329 329 329 329 330 330 330 331 331 331 331 331 332 332 334 334 331 327 325 324 323 322 322 321 321 321 321 321 320 320 320 320 321 322 323 323 323 322 321 321 323 323 319 315 316 317 319 320 321 323 325 328 331 336 339 339 338 338 338 339 339 338 338 338 338 337 336 334 333 331 330 329 329 329 328 328 327 327 326 325 325 324 324
329 329 328 328 329 329 329 330 330 331 331 331 331 331 332 332 331 330 327 325 323 322 321 321 320 320 320 320 319 319 319 319 320 321 322 323 323 323 322 322 322 322 323 321 317 313 314 316 318 320 323 325 327 330 332 335 336 335 334 333 333 334 334 333 333 333 332 331 331 330 329 329 328 328 328 327 327 327 326 326 325 324 324 323 323
328 328 328 328 328 329 329 329 330 330 330 331 331 331 333 332 330 327 325 324 322 321 320 320 320 319 319 319 319 318 318 319 320 321 322 323 323 323 322 323 323 324 323 321 317 316 317 319 322 325 327 328 329 330 330 331 331 330 330 330 330 330 331 331 330 330 329 329 328 328 327 328 328 328 328 327 327 326 325 324 324 323 323 322 322
327 327 327 328 328 328 328 329 329 329 330 330 331 331 332 332 330 328 326 325 323 320 319 319 319 319 319 318 318 318 318 318 319 320 322 322 322 322 322 323 324 324 325 324 323 323 324 324 326 327 328 328 328 328 328 329 329 329 329 329 329 329 329 329 329 328 328 328 327 327 327 327 328 328 327 326 326 326 325 324 323 322 322 322 321
326 326 326 327 326 326 327 328 328 329 329 330 330 331 330 329 328 326 325 325 323 321 320 319 319 319 319 318 318 318 317 318 318 319 320 320 321 321 321 322 323 323 324 325 325 326 326 326 326 326 326 326 327 327 327 327 327 328 327 327 326 326 326 327 328 328 328 328 328 328 328 327 327 328 327 326 325 325 324 323 322 321 321 320 320
325 325 325 326 326 326 327 327 328 329 329 329 329 328 327 326 325 324 323 323 322 322 321 320 319 320 320 319 318 318 318 318 318 318 319 319 320 320 320 321 321 322 323 323 324 324 324 324 324 324 324 324 325 325 326 326 326 326 326 326 325 325 325 325 325 325 325 326 326 326 326 325 324 324 324 323 322 321 320 319 319 319 318 318 318
324 324 325 325 325 326 327 328 328 329 328 328 327 326 325 324 323 323 322 321 321 321 321 320 320 320 320 320 319 318 318 318 318 318 319 319 319 319 320 320 321 321 321 322 322 322 322 322 322 322 322 322 323 323 324 324 324 325 325 325 325 325 324 324 323 323 322 323 322 322 322 322 321 321 321 320 319 319 318 318 317 317 317 317 317
324 324 325 325 326 327 328 328 328 328 327 326 325 324 323 323 322 321 321 320 320 320 319 319 320 319 319 319 319 318 318 318 318 318 318 318 319 319 319 320 320 320 320 321 321 321 321 321 321 322 322 321 322 322 322 323 323 323 323 322 323 323 323 322 322 322 322 321 321 320 319 319 319 319 318 319 318 318 318 317 317 317 317 318 318
324 325 325 326 327 327 328 327 327 326 326 325 324 323 322 322 321 320 320 319 319 319 319 319 319 319 319 319 319 318 318 318 318 319 319 318 318 319 318 319 319 319 319 320 320 320 321 321 321 321 321 321 321 322 322 322 322 321 321 321 321 321 320 320 320 320 320 320 319 319 318 318 318 317 317 317 317 317 317 316 317 317 319 319 320
324 325 325 325 326 326 326 326 326 325 324 324 323 322 321 320 319 319 319 319 319 319 319 319 319 319 319 320 320 319 319 318 319 319 319 319 319 318 318 318 318 317 317 317 318 319 319 319 319 319 319 320 320 320 320 320 320 320 320 320 320 320 320 319 319 319 319 318 318 316 316 316 317 318 318 319 319 318 318 318 319 320 320 320 319
323 324 324 324 325 325 325 325 325 324 323 323 322 321 320 319 319 319 319 320 320 320 320 320 320 320 320 320 321 321 321 320 320 320 319 319 319 318 317 317 317 316 316 316 316 316 316 317 317 317 317 317 317 317 318 318 318 318 319 319 319 320 320 320 319 319 319 319 319 319 318 318 319 319 320 321 321 321 321 321 321 321 320 320 319
322 323 323 323 324 323 323 324 323 323 322 321 321 320 320 319 319 320 320 320 321 321 321 320 320 320 320 320 321 321 321 321 321 320 320 320 320 319 318 317 316 316 315 315 315 314 314 315 315 315 316 316 316 316 317 317 316 317 317 317 318 318 318 319 319 319 319 319 319 320 320 320 320 320 320 320 320 320 320 320 320 320 319 319 319
321 321 321 322 322 322 322 321 321 321 320 320 319 319 319 320 320 320 320 321 321 321 321 321 320 320 320 320 320 321 321 321 320 320 320 319 319 318 318 318 317 316 315 315 314 314 313 313 313 313 314 315 316 316 317 317 317 317 317 316 316 317 317 317 318 318 318 318 318 319 319 319 319 319 318 318 318 318 318 318 319 319 318 318 317
321 321 321 320 321 321 321 320 320 320 320 320 320 319 320 320 320 320 320 320 319 319 319 320 320 321 321 320 319 319 319 319 319 318 318 317 316 316 316 316 316 316 315 315 314 313 313 312 312 311 311 312 314 315 316 316 317 317 317 317 317 317 317 316 316 316 316 316 316 317 317 317 317 317 317 317 317 317 317 317 317 317 318 318 318
321 321 320 320 321 321 321 321 321 320 320 320 320 320 320 320 319 318 318 318 318 318 318 318 319 320 320 319 318 318 317 317 316 316 316 315 315 315 315 315 315 315 315 315 314 314 313 313 312 311 310 309 310 312 313 314 315 316 316 316 317 317 317 317 316 316 315 315 315 316 316 315 315 316 316 316 316 316 315 315 315 316 316 317 316
321 321 321 321 321 321 321 321 321 321 321 320 320 319 319 318 318 318 317 317 317 317 317 317 318 318 318 318 318 317 317 317 316 316 316 315 315 315 314 314 314 314 314 314 314 314 313 313 313 312 311 309 308 307 308 310 311 312 313 314 315 315 315 316 316 316 316 316 316 316 316 316 316 316 316 316 315 315 315 315 315 316 316 316 315
321 322 321 321 320 320 320 320 319 320 320 319 319 318 318 318 318 318 317 317 317 317 317 317 317 317 317 317 317 317 317 317 317 317 316 315 315 314 313 313 313 313 313 314 314 313 313 313 313 312 311 310 308 306 306 307 309 310 311 312 313 313 314 315 315 315 316 316 316 315 315 315 315 315 315 315 315 315 315 316 316 316 315 315 314
321 321 320 320 319 319 319 319 319 319 319 319 319 319 318 318 318 318 318 318 317 317 317 317 317 317 317 317 317 317 317 317 316 316 315 315 314 314 313 313 313 312 312 313 313 312 312 312 312 311 310 309 307 305 304 305 307 308 310 311 311 312 313 314 314 314 315 315 315 315 315 315 315 315 315 315 315 315 315 315 314 314 314 313 312
321 320 319 318 318 318 318 318 318 318 319 319 319 319 319 320 320 320 320 319 318 318 317 317 317 317 317 316 315 315 315 315 315 315 314 314 314 314 313 313 313 312 312 312 312 311 311 311 310 309 307 305 304 302 302 302 304 306 308 309 310 311 312 313 314 314 314 314 314 314 314 314 314 314 315 314 314 314 313 313 313 313 313 312 312
320 319 318 317 317 317 317 317 317 318 318 319 319 319 320 320 321 321 320 319 318 318 318 317 317 317 317 316 315 315 314 314 314 314 314 314 314 314 314 314 313 313 312 312 311 311 310 309 309 307 305 303 301 300 300 300 302 305 307 308 310 311 312 313 314 314 314 314 315 315 315 314 314 314 314 313 313 313 313 312 312 312 312 312 312
318 318 317 316 316 317 317 317 318 318 318 319 319 319 319 320 320 319 319 318 319 319 319 318 318 318 318 317 316 315 315 314 314 314 315 315 315 315 315 315 314 314 313 313 312 312 311 310 309 308 307 305 304 301 299 299 300 303 306 308 310 311 312 313 314 314 314 314 314 314 314 314 314 314 313 313 312 312 313 313 313 313 313 313 312
318 317 316 315 316 317 317 318 318 318 318 318 319 319 319 318 318 318 318 319 318 319 319 319 319 319 319 318 317 316 315 315 315 316 316 316 316 316 316 316 316 315 315 314 314 313 312 311 311 310 309 308 307 304 301 299 299 300 303 306 308 310 311 313 313 314 314 314 314 313 312 312 312 312 312 312 312 312 312 312 312 312 313 313 312
Wind_Speed
21 22 20 17 14 11 10 10 11 16 17 16 15 13 12 13 13 12 12 12 11 12 14 15 15 16 17 17 17 18 18 18 17 17 18 19 19 21 21 21 22 22 22 22 22 21 20 19 20 20 20 21 21 20 19 19 20 21 22 20 16 15 15 13 9 9 15 19 19 19 19 16 14 13 14 15 15 13 14 16 16 15 16 20 23
20 19 19 17 15 12 12 9 6 13 16 14 14 13 13 14 14 14 13 13 14 15 17 17 17 18 18 17 17 17 17 17 17 18 19 20 21 21 21 22 23 23 22 22 21 21 21 21 21 21 21 22 22 21 21 20 20 20 21 19 16 15 17 17 14 9 11 18 20 20 20 19 19 19 18 17 17 18 21 22 21 18 19 22 24
21 19 17 17 15 13 13 11 9 11 14 14 14 14 14 15 15 14 14 14 15 16 17 18 19 19 18 17 17 19 20 21 22 22 23 23 23 23 23 23 24 24 23 22 21 21 20 21 21 21 21 21 21 21 20 20 19 19 20 20 18 16 18 20 19 13 12 17 20 19 19 20 21 21 20 19 20 22 22 21 19 20 22 24 24
19 18 16 15 14 13 12 12 12 12 13 15 15 15 16 16 16 17 16 17 17 17 19 19 20 20 19 19 20 22 23 23 24 25 24 23 23 23 24 24 25 24 24 23 22 22 22 22 22 22 21 21 21 21 20 19 20 20 20 20 19 18 18 20 20 19 17 16 18 20 20 21 22 21 20 20 21 22 21 21 21 20 22 23 22
17 17 15 13 12 12 12 13 15 15 15 16 16 16 17 18 18 18 18 18 19 20 22 22 22 22 22 23 23 22 22 22 22 23 23 23 23 24 25 25 25 25 25 25 24 23 23 23 24 23 22 22 22 21 21 20 20 20 20 20 20 20 18 17 17 19 18 17 19 21 22 21 21 20 19 20 22 21 21 23 23 22 22 24 24
15 14 13 12 12 13 14 14 16 17 17 17 17 18 18 19 19 20 20 21 20 21 22 23 24 24 24 25 24 23 24 23 23 24 24 25 25 26 26 26 26 26 26 25 25 24 24 24 24 24 23 22 22 22 22 21 21 20 20 20 20 19 19 18 18 18 18 19 21 21 21 20 19 19 20 21 21 20 20 21 22 23 24 24 25
14 13 12 12 12 13 14 15 16 17 18 19 19 20 20 21 22 23 23 23 22 23 23 25 25 25 25 26 25 26 27 26 26 25 25 26 25 26 26 25 25 25 25 25 25 25 25 24 24 23 23 23 23 23 22 22 22 22 21 21 20 19 19 19 20 19 19 19 19 18 20 21 20 21 22 20 19 20 19 18 18 21 23 24 26
12 11 11 11 11 12 13 14 14 15 17 18 19 20 21 22 23 23 23 22 23 23 23 24 24 24 25 25 26 27 26 26 26 25 25 25 25 25 25 25 25 25 25 25 25 25 25 24 23 23 24 24 23 23 23 23 22 22 22 21 21 20 19 18 18 18 18 18 17 18 19 20 21 21 19 16 16 19 21 20 19 21 23 24 26
9 9 9 10 11 11 12 13 15 15 16 17 18 20 21 21 22 22 22 23 23 23 23 24 23 24 25 25 26 26 26 26 26 25 24 23 23 23 23 24 24 24 25 25 24 24 23 23 22 23 24 24 24 24 24 24 24 24 24 23 22 21 19 18 17 17 17 17 17 17 16 17 20 19 17 17 19 21 22 22 22 22 22 21 25
7 7 8 9 11 12 13 15 16 17 17 18 19 19 20 21 21 22 22 23 23 23 23 23 24 25 26 26 26 25 25 25 24 24 24 24 24 24 23 24 24 24 23 23 23 23 23 23 23 23 23 24 25 25 26 27 28 29 28 27 26 24 21 19 19 18 17 16 17 17 13 14 19 20 17 20 22 21 20 20 21 20 18 16 18
4 5 7 9 10 11 12 13 14 15 16 17 18 19 20 20 21 22 22 22 23 23 23 24 25 25 25 25 24 24 24 24 24 24 24 24 25 25 25 24 25 24 24 23 23 23 23 23 23 23 24 24 25 26 27 29 30 31 32 32 32 31 28 25 22 20 18 17 18 17 14 15 21 22 19 20 21 20 21 21 20 18 16 13 10
2 4 6 7 9 10 11 12 13 14 16 17 18 19 20 21 22 23 23 23 24 24 24 25 25 24 24 24 24 24 24 24 24 25 24 24 25 26 26 25 24 24 23 23 23 23 23 23 24 23 24 24 24 25 26 27 28 29 30 32 32 33 34 32 30 27 23 20 19 19 18 19 21 21 20 19 20 21 21 21 21 20 18 15 13
2 5 6 8 10 11 12 13 14 15 17 18 19 20 20 21 22 22 22 23 24 24 24 24 25 24 24 24 25 25 24 24 25 25 25 25 25 25 26 26 25 24 24 23 23 23 24 24 24 24 24 24 25 25 26 27 27 27 28 29 29 31 33 35 36 35 33 28 24 23 24 24 22 22 21 20 18 18 18 20 24 25 21 19 20
4 6 8 9 11 12 14 15 16 17 17 18 19 20 20 21 21 22 22 23 23 24 24 24 24 24 24 24 25 25 24 24 25 25 25 25 24 25 26 26 26 25 25 25 25 25 25 25 25 26 26 25 25 25 25 26 26 26 26 26 26 27 28 30 32 34 36 36 33 32 33 31 29 29 26 23 22 20 20 23 25 26 26 25 27
6 8 10 12 13 14 14 15 16 17 17 17 18 19 20 21 21 21 21 22 22 23 23 24 24 23 23 24 24 25 25 24 24 24 24 24 24 24 25 26 26 26 26 26 26 27 27 27 27 28 27 27 27 26 26 26 25 24 25 26 27 27 28 29 29 30 32 35 37 38 40 38 37 36 33 29 28 27 26 26 26 26 28 27 26
8 10 12 13 13 13 13 14 15 16 17 17 18 18 19 20 20 20 21 21 22 23 23 23 23 23 23 23 23 24 24 24 24 24 24 24 24 25 26 25 25 25 26 26 26 28 28 28 28 28 28 29 29 29 29 28 26 26 26 27 28 28 29 31 31 31 31 32 35 37 39 39 38 37 35 33 32 31 29 28 26 24 22 19 18
11 12 12 12 12 13 14 15 16 17 18 18 18 19 19 20 20 21 21 21 21 22 23 23 23 24 24 24 24 24 24 23 24 25 25 25 24 24 25 24 23 24 25 26 27 28 29 29 29 29 29 29 29 30 30 30 29 28 26 26 27 28 29 29 28 30 31 33 35 37 38 38 37 36 36 34 34 33 28 24 24 23 18 12 11
11 11 11 12 13 15 16 17 17 18 18 18 19 20 20 20 21 20 21 21 21 22 23 24 24 24 24 24 24 24 23 23 23 24 25 25 25 25 25 24 24 25 25 26 27 28 29 29 30 31 31 30 30 31 30 30 29 27 26 26 27 27 29 28 26 27 29 31 32 34 35 37 37 38 39 38 38 36 30 27 27 24 19 14 11
10 11 12 14 15 16 16 17 18 18 19 19 20 20 20 21 21 21 22 22 23 23 24 24 24 24 24 24 23 23 23 23 23 23 24 24 25 25 24 23 23 23 24 25 26 26 27 28 29 30 30 31 32 32 32 31 29 28 27 26 25 27 30 29 27 26 27 27 27 27 29 31 32 34 37 38 39 38 36 35 32 25 20 19 17
11 12 14 15 16 16 17 18 18 19 20 20 20 21 21 21 21 21 22 22 22 23 23 23 24 24 24 24 24 23 23 23 23 22 22 23 23 23 23 22 22 23 24 24 24 25 25 25 26 28 29 30 30 30 30 31 31 31 30 27 25 27 30 29 27 26 26 26 26 25 25 24 24 25 28 31 33 34 36 38 36 30 25 23 22
13 14 15 16 16 17 17 18 19 19 20 20 20 20 20 20 20 21 21 22 22 22 23 23 23 23 23 23 23 23 22 23 23 23 23 24 24 24 24 24 23 23 23 22 23 24 24 24 24 24 24 25 25 26 28 30 32 34 33 30 29 30 31 29 28 27 26 25 25 25 24 23 22 23 25 27 28 28 31 35 37 34 30 28 25
14 16 17 17 17 17 18 18 19 18 18 18 19 20 20 20 20 21 21 21 21 22 22 22 22 22 23 22 22 23 23 23 23 24 24 22 20 19 20 21 22 22 22 23 24 25 25 26 27 26 26 26 27 29 31 32 31 32 32 31 32 34 33 32 31 29 27 26 24 24 24 22 22 23 24 25 25 26 27 30 33 34 33 33 30
15 16 17 17 17 17 18 18 18 17 17 18 19 20 21 21 21 21 21 21 21 21 21 21 21 21 21 22 22 22 22 22 21 20 19 17 17 18 19 20 20 20 21 23 25 26 27 28 28 29 28 28 28 28 28 27 27 29 30 30 32 32 33 33 32 28 26 26 24 24 23 22 20 20 21 23 24 25 26 26 28 29 29 32 36
15 15 16 16 17 18 18 19 18 18 19 20 20 20 21 21 21 21 20 19 19 19 20 21 21 20 20 20 21 21 21 19 18 18 17 17 19 20 20 19 19 19 20 22 24 25 25 26 27 29 30 31 32 32 32 33 33 33 32 31 31 30 29 28 27 24 24 23 22 23 23 22 22 21 21 22 21 20 21 22 23 25 26 27 29
14 14 15 16 17 18 19 20 20 20 20 20 20 20 21 21 21 20 19 19 20 20 20 19 19 19 20 19 19 19 19 19 18 19 19 19 18 17 17 17 18 19 21 22 23 24 27 29 31 33 34 34 35 35 37 40 41 40 39 37 34 32 29 26 23 22 22 21 21 22 22 20 20 19 18 18 17 15 14 15 16 17 18 17 17
14 14 15 16 18 19 20 20 21 20 20 19 20 20 19 19 20 20 20 20 19 18 18 18 18 18 17 16 16 15 16 18 19 19 17 17 17 17 19 22 23 24 26 27 28 28 29 30 29 29 29 29 29 30 33 35 36 36 36 35 33 31 30 26 23 22 21 21 21 22 21 19 18 16 13 11 12 12 11 11 9 8 7 6 4
15 15 16 18 19 19 19 20 20 19 18 18 18 17 17 19 20 20 20 20 20 19 18 17 16 14 13 13 14 14 15 16 16 17 18 21 25 28 31 32 31 28 26 26 25 25 26 26 26 26 26 26 27 28 31 33 33 30 28 27 28 29 29 28 26 25 24 24 23 22 20 18 15 11 6 5 7 7 8 10 9 7 8 8 7
16 17 18 18 18 18 18 18 18 17 16 16 16 17 18 19 20 21 21 19 17 15 13 13 13 12 12 14 15 15 16 16 16 19 24 29 33 35 36 35 31 26 24 23 23 24 25 26 27 26 24 23 24 25 26 27 28 27 25 24 24 25 27 27 27 27 27 26 22 17 14 12 10 9 8 8 9 8 8 9 10 11 11 10 11
17 17 18 17 17 16 16 16 17 17 16 17 18 19 20 21 22 24 20 13 10 12 13 12 13 13 12 13 14 16 17 18 20 24 28 30 30 30 31 30 28 27 28 27 26 26 27 26 24 22 19 18 20 22 21 22 23 23 22 23 24 24 23 21 19 20 22 21 16 11 12 13 13 13 13 14 14 13 14 14 14 14 14 13 14
17 16 16 15 15 15 15 16 17 16 16 18 19 21 24 24 20 16 9 12 15 16 16 14 14 14 14 14 14 15 17 19 20 22 23 22 21 20 21 22 22 24 27 26 23 22 21 19 19 19 19 19 20 21 21 19 17 11 6 6 9 9 7 6 7 7 8 9 10 12 14 15 15 16 18 18 18 17 17 17 17 17 17 17 16
16 15 14 15 16 16 16 16 16 15 15 16 17 21 25 20 10 8 11 16 19 18 17 15 15 16 17 18 19 18 18 18 17 16 15 15 14 15 18 18 15 15 17 16 15 14 12 12 14 17 17 15 13 9 6 4 4 9 14 15 13 14 15 15 13 12 15 17 17 16 16 16 16 17 18 18 19 18 18 17 17 17 17 17 15
16 15 14 15 17 17 15 15 15 15 14 15 18 21 19 10 11 14 14 17 21 20 18 17 18 19 21 23 24 25 24 23 21 17 14 13 13 16 21 21 17 15 13 7 2 5 6 6 6 6 5 7 9 13 17 19 19 18 19 19 19 20 19 18 17 17 19 20 20 20 20 19 18 17 17 19 20 19 19 19 19 18 18 17 17
15 16 16 16 16 15 15 15 16 15 15 18 19 16 11 9 10 10 10 14 19 20 20 20 21 22 24 26 27 28 29 29 27 22 18 16 17 19 23 25 25 22 18 15 13 10 8 7 10 14 18 19 19 20 21 22 22 23 23 22 21 22 22 21 21 21 21 22 22 22 21 20 19 18 18 19 20 20 21 20 19 18 18 16 15
15 15 16 16 16 16 16 15 15 16 18 18 14 10 10 11 11 10 9 9 13 17 19 21 23 24 26 27 28 29 31 32 32 29 25 23 22 23 25 28 30 30 27 24 22 20 19 18 19 21 22 22 22 23 24 25 26 26 26 25 24 25 25 24 24 24 23 22 22 22 20 19 19 18 18 18 19 19 19 19 18 18 17 15 14
15 14 15 16 15 15 16 15 16 18 17 12 9 10 11 11 11 11 11 11 12 13 15 19 22 24 25 26 27 28 30 32 33 33 32 30 27 28 30 30 29 29 28 27 25 24 23 23 23 24 25 25 25 25 25 26 26 26 25 25 25 26 26 26 27 27 27 27 26 24 23 22 21 20 20 21 21 20 21 21 21 20 18 16 15
15 14 15 15 15 16 17 16 14 11 9 10 11 11 11 12 12 12 12 13 13 13 14 17 21 23 24 25 24 25 28 31 32 34 35 34 32 32 31 28 25 25 26 26 27 27 27 26 27 27 27 27 27 28 28 28 28 28 27 27 26 26 26 26 27 28 29 29 28 28 27 26 25 25 24 24 23 23 23 23 23 21 19 17 16
15 15 16 16 15 15 13 10 9 10 11 12 12 12 12 13 13 13 14 14 14 15 16 18 20 22 24 24 24 25 26 28 30 33 35 36 36 36 32 28 27 27 27 27 27 27 27 28 29 29 28 29 29 29 28 28 29 30 30 31 31 30 29 29 30 30 30 29 28 28 28 28 28 28 28 26 24 24 24 24 24 22 19 17 16
15 15 15 13 11 11 11 11 12 12 12 13 14 14 13 14 15 15 16 15 15 16 17 17 19 21 23 21 21 23 25 26 28 31 33 34 35 35 32 30 30 30 29 29 28 27 28 30 30 30 29 30 30 29 29 29 29 30 30 31 31 31 31 31 32 32 32 32 31 30 29 29 29 30 30 27 25 25 25 24 22 20 18 17 17
13 13 13 14 13 13 13 13 13 13 14 15 15 14 14 15 17 16 16 16 16 17 17 19 21 24 24 20 16 17 20 24 26 27 29 31 33 33 32 32 32 32 31 31 30 29 30 31 32 32 32 32 31 32 32 32 32 32 31 31 31 30 28 28 29 29 29 30 31 31 31 30 28 27 25 23 22 23 22 20 17 16 16 17 17
13 14 15 15 14 13 13 13 13 13 14 15 16 15 16 18 17 16 15 16 17 17 18 20 23 25 26 24 20 17 18 21 23 23 25 28 30 32 33 33 32 32 32 32 32 32 32 31 32 33 33 33 34 35 34 35 35 33 32 30 30 29 27 26 26 26 26 26 26 25 25 24 22 20 19 18 18 18 17 16 15 15 15 16 16
15 15 16 15 14 13 13 14 14 14 15 16 17 17 18 18 16 15 16 17 17 17 19 21 22 23 24 25 24 21 19 18 18 20 21 23 25 27 30 31 31 32 32 32 32 33 33 33 34 33 33 33 33 33 33 33 32 31 31 31 30 29 28 27 25 24 24 24 23 22 20 19 17 17 16 16 16 16 16 15 15 15 14 14 15
16 17 18 17 14 14 15 17 16 16 17 18 19 19 18 17 16 16 18 18 17 17 18 19 19 19 20 21 21 21 20 19 18 19 20 20 22 23 24 25 27 28 28 29 30 31 32 33 34 34 33 33 32 31 30 29 27 26 26 26 26 26 26 25 24 23 22 21 21 20 20 19 17 16 16 16 16 15 15 15 14 14 14 14 14
17 18 19 18 18 18 20 20 20 19 19 19 20 19 19 18 17 19 20 19 19 20 20 19 16 14 14 17 18 18 19 19 19 20 20 21 21 22 21 22 22 23 24 25 25 26 28 29 30 31 32 31 31 30 29 28 26 26 25 25 24 23 22 22 21 20 19 19 19 18 17 16 15 15 14 14 14 14 13 13 13 13 12 12 11
16 17 17 18 20 21 21 21 21 20 20 20 20 19 19 19 20 21 21 20 21 22 22 21 17 14 13 15 17 18 19 19 19 20 20 20 21 21 21 21 21 21 22 23 23 23 24 25 26 28 28 29 29 28 28 27 27 26 26 26 25 24 23 22 20 17 15 15 15 15 14 14 12 12 12 12 12 12 11 11 10 10 9 9 9
16 16 16 16 19 20 20 21 22 21 20 21 21 20 20 20 20 19 19 19 20 21 21 20 19 17 16 17 17 18 18 19 19 20 20 20 20 20 20 20 20 21 21 22 23 23 23 23 24 25 25 26 26 26 26 26 26 25 25 25 25 25 24 23 22 20 17 15 13 13 14 14 14 13 13 13 12 11 10 10 10 11 11 10 9
15 15 15 16 18 20 21 22 22 21 20 21 21 19 18 17 17 16 16 16 16 16 17 17 18 18 18 18 18 18 18 18 18 19 19 19 19 19 19 19 20 21 21 21 21 22 22 22 22 23 23 23 24 24 25 25 25 25 24 23 22 22 21 20 20 21 20 17 15 13 13 14 15 14 13 12 11 11 11 12 12 11 11 10 8
14 14 15 17 19 20 20 20 20 19 18 17 16 14 13 12 12 11 10 10 12 13 14 14 14 15 16 16 17 17 17 16 17 17 18 19 19 19 19 19 19 20 21 21 21 21 22 22 21 21 21 22 22 23 23 24 23 23 22 21 21 20 19 18 17 18 18 17 16 15 14 15 14 13 12 11 11 11 11 11 10 9 9 9 8
13 14 17 19 19 19 18 17 15 15 14 12 10 8 7 6 5 4 4 7 11 13 13 13 13 13 14 14 15 15 15 16 16 17 17 18 18 19 19 19 19 19 20 20 21 21 21 21 21 21 22 22 23 23 22 22 22 21 20 19 19 18 17 16 16 15 15 14 13 13 13 13 13 13 13 12 12 11 11 10 10 9 10 9 7
13 13 16 18 18 16 15 14 12 9 7 5 4 3 3 3 4 5 6 9 12 12 12 12 13 13 14 14 14 14 15 15 15 16 16 17 17 18 18 19 19 19 19 19 20 20 21 21 21 21 21 22 23 23 22 21 20 19 18 17 16 15 15 16 16 15 15 14 13 12 12 12 12 12 13 12 12 12 11 9 8 8 8 7 7
13 12 14 16 16 14 13 13 13 13 12 11 9 7 6 7 9 10 11 12 12 12 12 12 13 13 14 14 14 15 15 15 15 15 15 15 15 16 16 17 17 18 18 18 18 18 19 19 20 20 20 20 21 22 21 19 18 16 15 15 14 14 15 16 16 16 16 16 15 14 13 13 13 13 12 11 10 10 10 9 8 6 5 6 6
12 10 10 10 8 7 6 7 9 11 13 14 14 13 13 13 14 14 14 13 13 13 14 13 13 13 13 14 14 14 14 14 14 14 14 14 14 15 15 16 16 16 16 17 17 17 18 18 17 17 18 18 18 19 20 18 16 14 13 13 13 14 15 16 17 17 17 17 15 14 14 14 13 13 13 12 11 9 9 9 9 7 4 5 4
Wind_Direction
198 209 220 235 246 240 242 249 224 207 207 207 208 221 243 251 254 261 270 281 288 288 284 278 276 277 276 276 277 277 277 276 276 278 282 286 287 287 286 286 285 282 278 273 271 271 272 274 275 273 274 275 273 273 273 274 275 277 283 286 273 254 245 240 244 260 259 257 263 270 268 265 267 266 262 261 255 250 253 255 263 272 260 247 244
203 211 215 225 237 240 249 265 228 196 201 211 217 229 245 247 251 260 267 275 279 280 279 275 273 272 271 272 274 277 278 277 278 280 282 283 283 283 282 279 278 277 275 272 269 269 269 269 271 271 270 270 270 270 270 270 273 273 275 280 275 258 250 248 249 260 265 261 262 265 264 262 264 263 261 258 251 251 254 252 250 252 255 252 247
203 208 211 218 224 230 238 246 238 213 210 221 227 234 245 249 256 267 272 273 273 274 274 273 272 271 272 276 278 280 279 277 276 276 276 276 276 277 278 276 275 274 273 274 272 271 269 268 268 269 268 268 268 269 268 267 270 272 272 274 272 266 258 253 250 249 259 264 262 261 265 266 262 260 257 252 249 252 254 249 244 244 246 248 246
203 205 207 215 219 225 231 235 238 230 222 226 231 238 247 253 261 268 271 270 267 268 271 273 275 275 277 280 280 278 275 272 271 269 268 268 268 270 273 273 271 269 269 270 271 271 270 269 269 269 269 271 272 272 271 270 268 268 270 271 272 272 264 256 250 245 248 256 256 255 260 264 263 258 251 246 245 247 249 247 244 243 243 245 246
200 203 206 214 217 223 229 232 237 237 235 235 237 242 248 253 258 264 268 269 265 265 267 269 271 273 275 276 276 276 277 276 274 270 268 268 269 269 270 270 268 267 266 266 267 267 266 266 266 267 268 269 271 272 271 271 270 268 268 268 268 269 266 261 257 252 251 252 253 254 255 257 260 255 245 241 242 245 248 249 246 243 244 250 251
199 201 205 214 219 226 231 233 235 236 238 240 243 247 252 255 260 266 271 271 267 266 266 267 266 266 267 269 271 276 280 280 278 276 274 272 271 270 268 266 265 265 265 265 265 263 262 262 263 264 264 264 266 268 269 270 271 271 270 269 269 268 264 260 259 257 256 259 261 262 258 254 254 252 247 242 240 240 239 239 240 241 243 248 250
199 200 207 217 225 232 237 239 239 239 240 243 246 250 253 258 263 268 270 268 266 266 266 265 263 263 264 267 270 275 278 279 277 274 273 270 268 268 267 265 264 264 265 265 265 264 262 261 261 261 262 262 262 263 265 267 268 268 269 269 271 270 265 261 260 256 255 261 264 264 262 258 253 251 251 247 245 246 237 224 228 236 239 242 243
199 205 214 224 233 239 243 248 250 250 250 250 252 255 258 262 265 266 266 266 266 267 266 266 265 265 267 268 270 273 275 275 274 273 271 269 266 265 265 265 266 265 265 266 266 266 265 264 263 263 262 261 261 261 261 263 265 266 267 267 268 268 263 260 258 253 251 255 256 257 259 258 253 251 251 247 245 247 238 224 225 233 234 236 239
201 210 221 233 242 244 248 256 260 263 265 265 266 268 269 269 269 268 268 267 267 268 267 267 268 269 270 271 272 273 273 272 271 270 269 268 266 265 265 266 267 266 267 268 268 268 269 270 268 266 266 264 262 261 261 260 261 262 264 264 266 265 262 257 253 248 248 250 251 253 255 257 256 251 245 238 236 242 241 233 232 234 230 229 235
206 218 234 245 251 253 258 264 265 266 268 270 270 271 271 272 272 271 270 269 268 268 268 268 269 270 272 272 272 272 271 270 268 267 267 267 267 266 266 266 268 269 269 270 271 271 271 271 270 268 268 267 265 264 263 262 261 260 261 262 262 262 261 259 256 251 247 245 248 251 249 253 256 251 245 242 239 241 244 237 230 229 222 221 230
215 232 249 256 258 260 264 268 268 266 267 269 269 271 273 273 273 273 272 271 270 270 270 271 271 271 272 273 273 272 270 270 269 269 268 268 267 266 265 266 267 269 269 269 270 271 271 270 270 269 268 267 267 266 265 264 263 262 262 261 260 260 258 257 257 255 251 247 249 250 247 250 254 251 249 249 243 239 243 244 239 226 211 208 221
228 248 257 263 265 266 267 269 270 269 270 271 271 273 274 273 274 274 273 273 273 273 273 273 274 274 275 274 273 272 271 271 271 272 271 270 268 266 265 265 266 266 267 267 267 269 270 271 271 269 268 266 267 267 266 265 264 264 264 264 263 262 259 257 257 256 255 256 256 254 251 253 256 253 250 251 247 240 241 249 250 239 222 214 218
256 262 264 268 270 272 273 273 272 272 273 275 277 278 279 278 279 280 280 280 281 279 277 276 276 276 276 275 274 273 273 273 273 274 274 273 270 268 267 265 264 265 266 266 267 267 268 269 269 268 267 266 265 266 265 265 265 265 266 267 267 266 263 260 259 257 256 256 257 258 258 257 259 257 253 254 251 236 228 238 245 242 232 224 224
268 271 273 275 276 278 278 278 278 280 282 284 286 287 287 287 287 288 289 288 287 285 283 281 280 278 276 276 276 275 275 275 275 276 276 274 272 270 269 267 265 264 265 265 266 266 265 265 265 265 265 265 264 264 263 264 265 265 266 267 267 268 267 264 263 262 259 256 254 256 258 257 257 258 257 257 253 241 231 234 237 235 232 232 233
284 282 280 281 283 283 284 287 289 291 293 294 295 295 294 293 293 293 293 293 292 291 290 288 285 283 280 278 277 277 277 277 278 277 276 276 275 273 271 268 265 264 264 265 265 265 264 263 262 263 263 263 262 261 261 261 262 263 265 266 267 268 267 265 264 263 261 258 256 256 258 258 258 258 257 255 253 248 244 244 243 238 236 238 238
288 284 284 286 289 292 297 301 303 303 302 301 300 299 298 298 299 300 299 298 296 294 292 290 288 285 283 280 278 277 277 277 278 279 279 278 278 276 273 269 266 264 265 265 265 264 263 262 262 262 262 262 261 260 260 260 260 261 264 266 268 267 266 266 266 265 262 260 259 259 261 261 259 258 258 255 252 251 249 249 247 240 235 236 234
289 291 294 298 304 310 312 310 308 305 303 303 302 301 302 301 302 303 301 299 297 295 293 291 289 287 285 282 280 278 277 278 279 281 281 279 278 277 274 269 267 266 265 266 266 265 263 262 262 262 262 262 261 261 261 261 260 259 261 265 266 265 264 266 268 268 265 262 261 261 262 263 261 261 260 257 253 251 248 244 240 234 228 227 228
302 307 310 313 315 314 311 308 306 305 304 305 304 304 304 303 303 302 300 299 298 297 295 292 290 288 286 284 282 281 280 281 282 280 279 279 279 277 274 270 267 267 268 269 269 268 266 265 263 261 261 261 261 260 261 260 258 257 260 264 266 266 265 265 267 269 267 265 264 263 262 262 261 262 262 259 256 252 246 241 239 234 226 222 228
317 319 318 318 316 314 314 313 312 312 310 308 306 306 305 303 302 301 300 299 299 297 295 294 292 291 290 288 287 286 285 285 285 283 282 282 280 278 274 269 267 269 272 273 272 271 270 269 266 263 262 262 261 261 260 258 256 257 260 262 263 264 265 265 266 268 268 266 265 265 263 263 262 262 261 259 257 254 249 245 243 236 227 226 231
322 320 320 320 318 318 318 316 314 312 309 308 307 305 304 302 302 302 301 300 299 298 297 297 295 295 294 292 290 289 287 287 287 286 285 283 282 281 277 272 271 273 275 275 275 275 273 271 268 266 264 263 263 262 261 259 260 261 261 257 256 261 267 268 268 268 269 268 268 267 267 266 262 259 259 259 258 255 251 248 244 237 231 231 231
324 323 322 320 318 317 315 313 312 311 309 308 307 305 305 304 304 303 302 301 301 300 300 299 297 295 294 293 292 291 290 290 289 287 286 285 283 281 277 273 271 275 279 281 281 279 277 275 273 270 268 265 263 266 271 272 271 268 261 256 257 264 268 269 270 270 269 269 270 270 269 266 261 259 260 261 261 258 253 249 245 239 234 232 232
324 324 321 318 315 313 312 312 313 311 309 309 309 307 307 307 305 304 303 301 299 297 296 295 294 294 294 294 293 293 292 291 290 290 290 287 284 283 283 282 280 280 284 287 284 281 279 278 278 277 275 273 273 277 279 278 275 270 265 264 267 269 269 268 269 269 267 267 268 268 266 263 260 257 256 256 258 257 253 250 247 245 241 239 240
321 318 316 315 315 314 315 315 314 312 310 310 310 309 308 306 304 301 298 296 295 294 295 295 295 295 295 294 294 295 295 295 295 296 297 295 296 300 301 299 295 291 287 283 281 280 281 280 280 281 281 280 281 281 280 277 273 270 270 271 272 272 271 269 266 265 264 264 264 264 263 261 256 251 252 254 255 252 250 249 248 249 250 248 247
313 314 316 318 320 321 321 319 316 312 310 309 308 306 305 303 300 298 297 297 297 296 296 297 297 296 296 298 300 302 305 306 307 308 309 306 306 307 304 300 298 295 290 284 280 279 279 279 279 280 280 280 279 278 277 275 273 271 270 270 269 271 273 269 263 260 260 261 260 260 261 260 256 253 254 254 253 251 252 254 255 255 257 255 250
318 327 329 327 326 324 320 318 314 310 308 309 306 304 303 302 300 301 302 301 299 298 297 298 302 305 306 307 308 311 315 319 318 317 315 312 309 306 302 300 300 299 295 290 286 282 280 280 281 282 282 282 282 281 279 275 273 271 269 268 267 267 266 263 259 257 256 256 258 258 258 259 259 259 255 246 239 237 241 246 248 251 256 256 251
338 337 335 330 325 321 317 314 312 310 310 309 305 303 302 300 300 302 304 303 302 303 302 304 311 316 317 317 318 319 322 321 318 317 317 317 315 312 307 304 302 300 295 290 286 286 286 286 286 286 286 286 285 284 282 279 276 272 268 266 264 260 256 253 251 251 253 253 254 255 257 259 261 263 259 237 220 215 216 219 221 223 229 227 224
341 334 330 325 321 318 315 313 311 312 313 309 306 304 303 302 304 307 307 306 305 305 306 313 325 334 334 331 327 325 324 322 320 322 322 318 314 310 307 303 300 297 293 288 287 286 285 284 284 283 283 284 285 284 283 280 277 270 263 260 257 253 252 249 246 247 250 251 251 251 251 248 243 238 222 181 171 179 197 206 195 168 159 155 122
338 330 324 321 320 318 315 312 311 313 311 307 306 307 308 309 309 307 307 309 313 321 333 346 356 357 348 339 335 330 326 325 322 320 316 311 308 306 303 300 297 292 286 283 281 280 280 280 281 282 282 283 285 285 281 276 271 264 257 254 252 250 249 247 244 243 244 245 246 242 228 205 183 167 149 126 117 124 145 159 148 132 132 133 112
331 324 321 322 321 316 313 310 310 313 313 311 310 310 310 310 305 303 313 338 9 20 27 27 16 6 354 344 340 332 323 320 316 311 308 306 305 304 302 301 298 292 286 283 279 275 275 276 278 278 278 281 283 282 279 272 265 259 253 250 248 244 241 238 235 236 238 235 227 201 166 146 135 128 119 108 103 110 117 118 116 113 110 102 90
327 322 323 322 318 316 314 311 312 315 315 314 315 314 315 315 310 306 338 43 51 42 42 40 27 19 10 358 352 342 329 326 321 314 313 314 314 315 316 315 308 298 289 283 274 268 267 268 271 273 273 274 275 276 276 269 258 245 230 232 233 221 195 166 162 177 179 163 146 132 122 116 113 111 110 106 102 103 105 105 105 102 96 91 86
326 326 325 318 315 317 314 310 311 313 311 313 318 318 319 328 1 62 69 61 51 43 43 42 36 33 26 16 13 10 2 356 349 340 338 339 339 344 347 343 333 322 310 289 263 252 252 258 269 274 271 269 273 288 318 355 59 80 74 69 69 75 81 87 98 108 108 105 104 103 101 103 105 106 108 108 104 100 97 94 95 94 92 92 91
329 328 324 318 318 319 315 312 312 311 311 318 323 322 325 355 70 86 78 62 51 46 47 47 44 42 37 29 25 23 21 20 19 17 16 16 14 17 18 19 19 16 10 1 270 230 233 248 284 323 9 46 52 56 61 65 69 71 71 70 69 70 74 82 91 96 96 96 97 98 99 102 104 104 106 106 103 98 93 88 88 90 91 92 93
328 324 322 320 321 321 318 316 314 313 319 323 323 329 353 37 63 75 78 64 50 45 50 51 48 45 41 37 34 31 30 31 33 35 37 37 34 33 33 36 40 40 40 47 57 64 71 69 55 53 59 63 63 64 65 67 70 72 72 70 70 69 72 80 87 89 91 93 96 97 98 99 99 99 99 99 99 98 96 94 93 91 89 87 88
327 323 324 324 325 322 319 318 316 317 323 327 331 357 31 41 42 47 53 50 44 44 47 48 47 45 41 38 36 35 35 37 39 42 45 45 44 43 43 44 47 48 49 52 56 59 61 61 59 59 60 61 62 65 66 66 69 71 71 69 68 68 70 75 78 80 82 86 88 89 89 89 90 94 93 92 92 93 91 88 85 82 79 76 76
331 326 325 327 328 322 316 315 314 317 326 345 19 41 41 40 45 47 45 45 46 43 38 38 41 42 40 37 35 36 38 38 40 44 47 47 47 49 49 47 44 43 44 48 52 54 56 57 58 58 58 59 60 62 65 65 66 68 70 70 69 69 70 70 71 72 72 73 73 77 80 79 79 82 83 82 80 79 77 76 75 74 74 74 73
337 332 330 329 325 319 316 318 323 335 4 36 48 47 45 47 50 52 53 53 51 44 38 36 36 38 39 37 35 38 41 40 41 45 47 47 48 50 50 47 43 41 41 45 51 54 56 58 60 60 60 61 61 62 65 66 66 66 67 68 67 67 67 68 69 70 70 69 69 70 73 74 77 80 81 80 80 80 79 79 77 76 77 78 78
342 336 330 327 325 328 337 357 28 50 57 54 50 51 55 56 55 58 61 59 54 49 43 36 34 37 41 39 38 41 45 45 45 47 48 48 49 51 50 49 49 47 44 44 49 54 56 58 60 61 61 62 63 63 64 66 67 68 68 68 68 68 68 69 70 71 70 69 69 70 71 72 75 78 79 78 77 77 78 78 78 78 78 79 79
345 343 344 352 1 12 31 50 59 60 59 57 55 55 58 60 62 64 65 63 59 53 44 37 35 33 31 33 41 46 47 47 48 48 47 47 48 49 48 49 50 50 47 45 47 51 55 56 58 60 61 61 62 62 63 64 66 67 67 67 68 68 68 70 71 71 71 70 71 73 74 74 74 76 78 78 77 77 79 80 82 81 78 77 79
358 5 19 31 37 42 48 53 55 58 60 61 59 58 62 67 68 67 67 65 60 53 46 42 39 32 26 28 40 48 47 47 48 47 47 47 47 47 48 49 49 50 50 48 47 49 53 55 56 58 60 61 63 63 64 64 64 65 66 67 68 68 68 69 71 71 73 74 76 78 80 80 79 79 80 81 81 84 87 87 88 90 88 86 89
19 26 36 41 43 48 53 55 57 61 62 62 63 67 71 72 70 69 69 66 61 57 53 47 42 39 37 38 42 47 49 50 51 51 52 51 49 48 48 49 50 50 50 50 50 51 52 54 56 57 58 60 63 65 66 66 65 65 65 66 67 67 67 69 71 72 73 75 78 81 84 85 85 83 82 82 84 89 92 92 92 94 94 94 97
34 39 44 44 43 50 58 60 60 63 65 67 71 75 76 75 72 70 68 66 63 60 57 52 48 47 48 49 49 50 50 51 53 55 54 53 53 53 51 51 52 52 51 51 51 52 52 53 54 55 56 58 60 63 64 65 66 66 65 65 66 66 65 66 69 73 76 78 79 79 81 85 86 84 81 81 83 86 87 87 89 91 92 93 96
49 52 54 52 51 59 67 67 65 68 72 74 75 77 76 74 72 70 68 65 62 58 55 53 51 52 54 55 54 53 52 50 50 51 50 50 53 55 55 53 53 52 51 51 51 51 53 53 53 54 55 56 57 58 58 58 60 62 62 62 63 64 64 64 66 69 74 77 78 78 80 82 84 84 83 83 84 86 87 88 90 91 93 95 98
59 60 62 63 64 67 71 70 70 71 74 75 76 77 77 75 73 71 68 64 58 54 50 45 42 46 54 57 54 52 51 50 49 49 49 48 50 52 53 52 52 51 50 50 50 50 52 53 53 53 54 56 57 58 56 55 56 56 55 54 54 54 55 58 61 65 68 70 72 75 77 80 83 86 87 87 88 88 90 92 94 95 97 101 104
62 63 65 66 67 67 69 70 71 72 74 75 76 76 78 78 76 73 69 61 54 49 43 37 34 41 52 55 53 51 50 50 50 50 49 49 49 49 48 48 49 49 49 48 48 49 50 51 52 52 52 53 56 57 57 56 56 55 53 51 49 46 43 42 45 50 57 63 65 67 69 70 75 79 81 81 82 81 82 86 91 94 94 93 89
68 66 64 63 65 65 66 68 70 70 72 74 76 78 81 81 78 71 64 57 53 50 46 40 39 43 49 52 54 54 53 50 48 47 46 46 47 48 47 46 46 47 47 47 46 47 48 49 50 50 50 51 53 56 58 58 57 55 53 52 50 47 45 42 43 47 53 58 61 63 62 61 62 67 73 76 76 76 77 78 79 79 79 79 76
65 62 60 61 63 65 66 69 73 74 75 78 81 83 84 82 76 69 63 59 58 60 58 51 46 45 46 46 48 50 50 48 46 45 44 44 45 46 47 48 48 48 47 47 47 47 48 49 49 49 49 49 50 52 55 57 58 58 57 55 53 52 51 50 51 53 54 54 56 60 61 60 59 64 69 72 70 70 71 70 68 71 75 75 71
66 65 67 69 70 72 74 76 78 79 81 83 86 87 86 83 77 72 70 70 68 67 65 61 57 54 52 50 48 45 44 44 46 47 46 45 45 45 46 48 50 50 49 48 48 48 48 48 49 50 50 50 50 50 52 54 55 55 55 55 54 53 53 56 59 59 57 53 53 57 59 59 58 59 61 64 65 67 69 68 67 71 76 75 69
80 79 78 77 76 75 76 77 79 81 82 83 84 82 80 74 55 29 33 59 64 62 61 60 58 56 56 57 56 54 51 49 49 49 48 48 47 47 48 49 50 51 51 50 50 50 50 50 50 50 51 51 52 52 52 53 54 53 52 53 52 51 53 57 59 61 62 60 57 58 61 61 59 57 55 54 55 56 58 59 59 61 63 62 60
95 91 87 84 81 76 71 68 65 61 58 56 52 40 29 20 12 11 32 54 61 61 62 61 58 56 55 56 57 58 59 58 56 55 54 53 51 51 52 53 54 54 54 54 53 52 52 52 51 51 51 51 51 51 51 52 52 52 52 53 53 56 60 60 58 59 63 62 56 54 56 58 60 59 56 52 52 54 53 50 51 58 63 57 44
102 98 93 89 83 75 66 58 48 38 30 25 23 27 38 49 48 45 47 52 53 53 56 60 61 59 57 57 56 57 57 58 58 58 57 56 54 53 53 55 56 57 57 56 55 54 53 53 52 51 50 49 47 47 47 48 48 49 50 54 57 60 62 61 59 59 59 58 54 50 47 48 52 53 51 50 52 52 46 36 29 39 74 76 48
115 112 108 104 92 75 63 58 53 47 41 36 34 35 40 45 46 43 41 43 44 45 48 51 54 55 55 55 57 58 58 58 59 58 55 53 54 54 54 55 56 57 57 56 56 55 54 53 52 51 49 47 44 43 44 45 46 47 51 57 62 63 63 61 60 58 56 55 52 50 49 49 49 47 45 44 43 43 42 33 18 12 42 69 45